www.pogodaiklimat.ru

Погода и климат >> Архив погоды >> Великобритания >> Lerwick


АРХИВ ПОГОДЫ в Lerwick

Время (UTC), дата Ветер
(напр.,м/с)
 
Видим.   Явления Облачность Т
(С)
Тd
(С)
f
(%)
Тe
(С)
Тes
(С)
Комфортность P
(гПа)
Po
(гПа)
Тmin
(С)
Tmax
(С)
R
(мм)
R24
(мм)
S
(см)
14 14.10 З 6 24 км 9/3 540 м
[Cu med, cong Ac As]
+9.3 +7.4 88 +5 +6 тепло 1006.4 996.5
13 14.10 ЮЗ 7 30 км 9/3 540 м
[Cu med, cong Ac As]
+9.3 +6.9 85 +5 +6 тепло 1005.9 996.0
15 14.10 ЮЗ 6 30 км 9/1 540 м
[Cu med, cong As op Cs]
+9.5 +7.3 86 +6 +6 по сезону 1006.6 996.7
16 14.10 ЮЗ 6 29 км слабый ливневой дождь 9/4 540 м
[Cu med, cong Cs]
+9.6 +7.7 88 +6 +6 тепло 1006.8 996.9
17 14.10 ЮЗ 5 30 км в посл. час ливневой дождь 5/4 540 м
[Cu Sc Cs]
+8.2 +6.1 87 +5 +5 тепло 1007.5 997.5
18 14.10 ЮЗ 5 23 км {ливн. осадки} 1/1 570 м
[Cu Sc Cs]
+7.5 +6.4 93 +4 +4 по сезону 1008.0 998.0 +10.3 0.2
20 14.10 ЮЗ 4 16 км 1/1 540 м
[Cu med, cong]
+6.6 +5.6 93 +3 +3 тепло 1009.0 998.9
19 14.10 ЮЗ 4 23 км 3/3 540 м
[Cu med, cong]
+7.2 +6.1 93 +3 +3 по сезону 1008.5 998.5
21 14.10 ЮЗ 4 22 км ясно +6.3 +4.8 90 +2 +2 прохладно 1009.7 999.7
22 14.10 ЮЗ 3 45 км 1/0
[Ci sp]
+6.2 +4.7 90 +3 +3 тепло 1010.0 1000.0
23 14.10 Ю 4 23 км 5/1 1260 м
[Sc Ci sp]
+7.0 +5.6 91 +4 +4 тепло 1010.1 1000.1
00 15.10 Ю 3 19 км 1/1 1500 м
[Sc Ci sp]
+7.0 +5.7 91 +4 +4 по сезону 1010.2 1000.2
02 15.10 ЮЗ 5 35 км 9/0
[Ac trans]
+8.3 +6.6 89 +5 +5 тепло 1010.3 1000.3
01 15.10 Ю 4 30 км 8/0
[Ci sp]
+7.2 +5.8 91 +4 +4 тепло 1010.2 1000.2
03 15.10 ЮЗ 6
{13}
7000 м слабый ливневой дождь 10/10 660 м
[Cu Sc]
+8.1 +6.7 91 +4 +4 по сезону 1010.4 1000.4
04 15.10 ЮЗ 8 30 км в посл. час дождь н/о +9.0 +7.5 90 +4 +4 тепло 1010.1 1000.1
05 15.10 ЮЗ 7 35 км н/о +8.5 +6.2 85 +4 +4 тепло 1010.0 1000.0
06 15.10 ЮЗ 5 26 км {ливн. осадки} 10/0
[Ac trans]
+8.5 +6.4 87 +5 +5 по сезону 1010.3 1000.3 +5.9 2
08 15.10 Ю 5 20 км 9/0
[As op]
+9.2 +7.4 88 +6 +6 тепло 1010.8 1000.9
07 15.10 ЮЗ 6 21 км 9/3 450 м
[Cu Sc Ac trans]
+8.5 +6.6 88 +5 +5 тепло 1010.6 1000.7
09 15.10 ЮЗ 7 30 км 9/5 1500 м
[Sc Ac trans]
+9.7 +7.3 85 +6 +6 по сезону 1011.1 1001.2
10 15.10 ЮЗ 7 35 км 9/1 1500 м
[Sc Ac trans]
+10.5 +7.5 82 +7 +7 тепло 1011.2 1001.3
11 15.10 ЮЗ 11
{13}
18 км 8/1 750 м
[Cu Sc Ac trans]
+11.3 +8.0 80 +7 +7 тепло 1011.2 1001.3
12 15.10 ЮЗ 11
{14}
24 км 5/4 600 м
[Cu Sc Ac trans Ci fib]
+11.4 +8.1 80 +7 +7 по сезону 1011.6 1001.7
14 15.10 ЮЗ 10
{14}
22 км 8/4 540 м
[Cu Sc Ci sp]
+11.2 +8.2 82 +7 +7 тепло 1011.7 1001.8
13 15.10 ЮЗ 10
{15}
22 км 9/5 600 м
[Cu Sc Ci fib]
+10.9 +8.2 83 +7 +7 тепло 1011.7 1001.8
15 15.10 ЮЗ 10
{13}
30 км 3/1 450 м
[Cu Sc Ci sp]
+11.1 +8.3 83 +7 +7 по сезону 1012.0 1002.1
16 15.10 ЮЗ 8 22 км 1/1 540 м
[Cu Sc Ci sp]
+10.3 +8.0 86 +6 +6 тепло 1012.2 1002.3
17 15.10 ЮЗ 6 18 км 4/4 720 м
[Sc Ci sp]
+9.2 +7.5 89 +6 +6 тепло 1012.4 1002.4
18 15.10 ЮЗ 8
{13}
25 км слабый ливневой дождь 8/8 660 м
[Cu med, cong]
+10.2 +7.5 83 +6 +6 по сезону 1012.9 1002.9 +11.9 0.0
20 15.10 ЮЗ 5 16 км 9/3 540 м
[Cu Sc Ci sp]
+9.0 +7.7 92 +5 +5 тепло 1013.5 1003.5
19 15.10 ЮЗ 7 16 км в посл. час ливневой дождь 3/0
[Ci sp]
+9.2 +8.0 92 +5 +5 тепло 1013.2 1003.2
21 15.10 З 5 24 км {ливн. осадки} 9/3 540 м
[Cu Sc Ci sp]
+8.5 +7.2 92 +5 +5 по сезону 1013.5 1003.5
22 15.10 ЮЗ 4 26 км 8/1 1200 м
[Sc Ci sp]
+8.0 +6.4 90 +5 +5 тепло 1013.4 1003.4
23 15.10 Ю 3 20 км 9/0
[Ac trans]
+7.6 +6.3 91 +5 +5 тепло 1013.3 1003.3
00 16.10 Ю 4 20 км {ливн. осадки} 9/0
[Ac As]
+8.1 +7.2 94 +5 +5 по сезону 1012.8 1002.8 0.0
02 16.10 Ю 8 22 км 10/1 180 м
[St As op]
+9.8 +8.3 90 +6 +6 тепло 1011.8 1001.9
01 16.10 Ю 7 20 км 10/1 180 м
[St Ac As]
+9.9 +8.7 92 +6 +6 тепло 1012.3 1002.3
03 16.10 Ю 8 22 км 10/0
[Ac As]
+9.9 +8.2 89 +6 +6 по сезону 1011.0 1001.1
04 16.10 Ю 9
{13}
15 км н/о +10.0 +8.8 92 +6 +6 тепло 1010.5 1000.6
05 16.10 Ю 11
{15}
17 км 10/5 360 м
[St Ac As]
+10.0 +7.7 86 +5 +5 тепло 1009.8 999.8
06 16.10 Ю 11 17 км 10/1 420 м
[St Ac As]
+9.9 +7.5 85 +5 +5 по сезону 1008.6 998.7 +7.3 0.0
08 16.10 Ю 14
{17}
14 км 9/9 400 м
[St Ac trans]
+10.0 +7.6 85 +5 +5 тепло 1007.2 997.3
07 16.10 Ю 12
{15}
15 км 9/1 420 м
[St Ac trans]
+9.8 +7.2 84 +5 +5 тепло 1007.9 998.0
09 16.10 Ю 15
{21}
14 км 9/9 420 м
[St Ac trans]
+10.1 +7.6 84 +5 +5 по сезону 1006.8 996.9
10 16.10 Ю 15-20
{21}
13 км 10/9 450 м
[St Ac trans]
+10.4 +7.9 84 +5 +5 тепло 1006.1 996.2
11 16.10 Ю 14
{20}
11 км 10/10 270 м
[St]
+10.5 +8.8 89 +5 +5 по сезону 1005.1 995.2
12 16.10 Ю 14-20
{20}
2800 м слабый дождь 10/10 90 м
[Frnb]
+10.1 +9.7 97 +5 +5 по сезону 1004.0 994.1 0.2
14 16.10 Ю 15
{20}
9000 м дымка 10/10 180 м
[St]
+10.8 +10.0 95 +6 +6 тепло 1002.2 992.4
13 16.10 Ю 13
{19}
6000 м в посл. час дождь 10/10 90 м
[St]
+10.4 +10.0 97 +5 +5 тепло 1002.8 993.0
15 16.10 Ю 13
{20}
9000 м в посл. час дождь 9/9 240 м
[St]
+10.7 +9.5 92 +6 +6 по сезону 1001.7 991.8
16 16.10 Ю 12
{18}
9000 м дым н/о +10.7 +9.1 90 +6 +6 тепло 1001.7 991.8
17 16.10 ЮЗ 8
{15}
12 км 9/3 450 м
[Sc Cc]
+10.8 +8.6 86 +7 +7 тепло 1001.7 991.9
18 16.10 ЮЗ 13
{19}
30 км {дождь} 9/1 1500 м
[Sc Cc]
+11.8 +7.5 75 +8 +8 тепло 1001.5 991.7 +12.1 1
20 16.10 ЮЗ 11
{16}
21 км 9/5 1320 м
[Sc Cs]
+11.8 +8.6 81 +8 +8 тепло 1002.1 992.4
19 16.10 ЮЗ 13
{16}
17 км 9/6 1500 м
[Sc Cc]
+11.8 +8.5 80 +7 +7 тепло 1002.0 992.2
21 16.10 ЮЗ 12
{17}
12 км 9/3 1320 м
[Sc Ac As]
+11.7 +9.0 83 +8 +8 тепло 1002.2 992.4
22 16.10 ЮЗ 11
{17}
5000 м слабый дождь 10/5 240 м
[Sc Ac trans]
+10.9 +9.7 92 +6 +6 тепло 1003.0 993.2
23 16.10 ЮЗ 11
{15}
16 км в посл. час дождь 6/5 1320 м
[Sc Ac trans]
+10.4 +8.8 90 +6 +6 тепло 1003.1 993.3
00 17.10 ЮЗ 10
{14}
12 км {дождь} 1/1 240 м
[St Ac trans]
+10.2 +8.9 92 +6 +6 по сезону 1003.6 993.7 0.0
02 17.10 ЮЗ 10
{15}
14 км в посл. час ливневой дождь 9/9 600 м
[Cu Sc]
+9.8 +7.6 86 +5 +5 тепло 1003.8 994.0
01 17.10 ЮЗ 11
{14}
14 км 5/5 1500 м
[Sc]
+10.2 +7.6 84 +6 +6 тепло 1003.8 994.0
03 17.10 ЮЗ 10
{13}
16 км {ливн. осадки} 8/8 480 м
[Cu Sc]
+9.7 +7.7 87 +5 +5 по сезону 1004.3 994.4
04 17.10 ЮЗ 10
{14}
14 км 4/4 480 м
[Cu Sc]
+9.3 +7.2 87 +5 +5 тепло 1004.8 994.9
05 17.10 ЮЗ 11
{15}
8000 м слабый ливневой дождь 9/9 420 м
[Cu Sc]
+8.8 +6.5 85 +4 +4 тепло 1005.1 995.2
06 17.10 ЮЗ 12 14 км слабый ливневой дождь 8/8 420 м
[Cu Sc]
+9.1 +5.4 78 +4 +4 по сезону 1005.5 995.6 +8.6 0.2
08 17.10 ЮЗ 12
{19}
16 км в посл. час ливневой дождь 6/6 600 м
[Cu Sc]
+9.6 +4.6 71 +5 +5 тепло 1007.2 997.3
07 17.10 ЮЗ 11
{16}
16 км слабый ливневой дождь 8/8 600 м
[Cu Sc]
+8.8 +5.0 77 +4 +4 по сезону 1006.5 996.6
09 17.10 ЮЗ 9
{17}
18 км в посл. час ливневой дождь 8/8 600 м
[Cu Sc]
+9.1 +4.7 74 +5 +5 по сезону 1008.4 998.4
10 17.10 ЮЗ 12
{16}
17 км в посл. час ливневой дождь 4/4 600 м
[Cu med, cong]
+9.6 +4.4 70 +5 +5 тепло 1009.2 999.2
11 17.10 ЮЗ 12
{20}
11 км в посл. час ливневой дождь 8/8 480 м
[Cb cap]
+10.1 +5.2 72 +5 +5 по сезону 1009.9 1000.0
12 17.10 З 13-19
{19}
8000 м в посл. час ливневой дождь 4/4 500 м
[Cb cap]
+8.1 +6.3 88 +2 +2 прохладно 1010.8 1000.8 0.6
14 17.10 ЮЗ 12-17
{18}
13 км 4/4 540 м
[Cu Sc]
+10.2 +4.8 69 +6 +6 тепло 1011.9 1001.9
13 17.10 З 12
{17}
22 км в посл. час дождь н/о +10.0 +4.4 68 +5 +5 тепло 1011.1 1001.2
15 17.10 З 11
{17}
12 км в посл. час ливневой дождь 4/4 500 м
[Cb cap]
+9.6 +5.9 78 +5 +5 по сезону 1012.5 1002.5
16 17.10 З 12
{17}
21 км в посл. час ливневой дождь 4/4 500 м
[Cb cap]
+9.4 +4.9 73 +4 +4 тепло 1013.3 1003.3
17 17.10 З 11
{16}
18 км в посл. час ливневой дождь 8/8 500 м
[Cb cap]
+8.9 +4.4 73 +4 +4 тепло 1014.1 1004.1
18 17.10 З 8
{18}
16 км в посл. час ливневой дождь 3/3 500 м
[Cb cap]
+8.4 +4.9 79 +4 +4 по сезону 1015.1 1005.1 +10.9 0.8
20 17.10 З 10
{15}
13 км в посл. час ливневой дождь 1/1 540 м
[Cu med, cong]
+7.6 +4.8 82 +2 +2 тепло 1016.9 1006.8
19 17.10 З 10
{16}
17 км в посл. час ливневой дождь 3/3 540 м
[Cu med, cong]
+7.7 +4.6 81 +2 +2 по сезону 1016.0 1005.9
21 17.10 З 11
{17}
21 км {ливн. осадки} 3/3 540 м
[Cu med, cong]
+7.8 +4.2 78 +2 +2 по сезону 1017.5 1007.4
22 17.10 З 12
{16}
17 км в посл. час ливневой дождь 4/4 660 м
[Cu med, cong]
+8.3 +4.2 75 +3 +3 тепло 1017.8 1007.7
23 17.10 З 10
{16}
18 км в посл. час ливневой дождь 3/3 660 м
[Cu Sc]
+7.7 +4.4 80 +2 +2 по сезону 1018.5 1008.4
00 18.10 З 10
{17}
21 км в посл. час ливневой дождь 5/5 660 м
[Cu med, cong]
+8.3 +4.1 75 +3 +3 по сезону 1018.9 1008.8 1
02 18.10 З 11
{14}
27 км 6/6 660 м
[Cu Sc]
+8.2 +2.5 67 +3 +3 тепло 1019.6 1009.5
01 18.10 З 9
{19}
18 км в посл. час ливневой дождь 5/5 660 м
[Cu med, cong]
+7.7 +4.7 81 +3 +3 по сезону 1019.2 1009.1
03 18.10 З 12
{15}
21 км слабый ливневой дождь 8/8 660 м
[Cu Sc]
+7.9 +3.1 72 +2 +2 по сезону 1020.0 1009.9
04 18.10 З 9
{13}
16 км в посл. час ливневой дождь 8/8 750 м
[Cu Sc Ci sp]
+8.6 +3.2 69 +4 +4 тепло 1020.3 1010.3
05 18.10 З 8
{16}
15 км в посл. час ливневой дождь 8/5 750 м
[Cu med, cong Ci sp]
+8.5 +4.2 74 +4 +4 тепло 1020.8 1010.7
06 18.10 З 10 19 км {ливн. осадки} 9/8 750 м
[Cu Sc Cs]
+8.9 +2.7 65 +4 +4 по сезону 1021.3 1011.2 +7.1 2
08 18.10 З 7
{14}
15 км 8/5 700 м
[Cu Sc Cs]
+9.0 +4.1 71 +5 +5 тепло 1022.4 1012.3
07 18.10 З 10
{13}
21 км 8/6 750 м
[Cu Sc Cs]
+9.1 +2.2 62 +5 +5 тепло 1021.9 1011.9
09 18.10 З 9 25 км 8/5 700 м
[Cu Sc Ac trans Ci sp]
+9.1 +5.9 80 +5 +5 по сезону 1023.0 1012.9
10 18.10 З 8 25 км 6/4 570 м
[Cu Sc Ac trans Ci sp]
+9.4 +5.4 76 +5 +5 тепло 1023.3 1013.2
11 18.10 З 6 28 км в посл. час ливневой дождь 9/9 540 м
[Cu Sc]
+9.1 +5.8 80 +5 +5 тепло 1023.5 1013.4
12 18.10 З 8 40 км в посл. час ливневой дождь 9/6 500 м
[Cu Sc Ac trans Ci sp]
+9.5 +5.0 73 +5 +5 по сезону 1023.5 1013.4 0.0
14 18.10 ЮЗ 8 30 км в посл. час ливневой дождь 9/5 540 м
[Cu Sc Ac trans]
+10.0 +5.9 76 +6 +6 тепло 1023.2 1013.2
13 18.10 ЮЗ 9 6000 м слабый ливневой дождь 9/9 500 м
[Cu Sc]
+9.1 +6.8 86 +5 +5 тепло 1023.5 1013.4
15 18.10 ЮЗ 8 15 км {ливн. осадки} 9/4 540 м
[Cu Sc Ac trans]
+9.8 +6.7 81 +6 +6 по сезону 1023.1 1013.1
16 18.10 ЮЗ 7 20 км 9/4 570 м
[Cu Sc Ac trans Ci sp]
+9.4 +7.0 85 +5 +5 тепло 1023.0 1013.0
17 18.10 ЮЗ 7 18 км 9/6 570 м
[Cu Sc Ac trans]
+9.6 +6.7 82 +6 +6 тепло 1023.0 1012.9
18 18.10 ЮЗ 8 20 км в посл. час ливневой дождь 9/6 540 м
[Cu Sc Ac trans]
+9.4 +6.8 84 +5 +5 по сезону 1022.8 1012.7 +10.5 0.2
20 18.10 ЮЗ 8 27 км в посл. час ливневой дождь 9/9 540 м
[Cu med, cong]
+9.3 +6.6 83 +5 +5 тепло 1022.5 1012.5
19 18.10 ЮЗ 9 7000 м слабый ливневой дождь 9/9 570 м
[Cu Sc]
+9.0 +6.5 84 +4 +4 тепло 1022.7 1012.6
21 18.10 ЮЗ 6 21 км {ливн. осадки} 10/8 1110 м
[Sc Ac trans]
+9.2 +6.3 82 +5 +5 по сезону 1022.2 1012.1
22 18.10 ЮЗ 6 27 км 10/8 1260 м
[Sc Ac trans]
+8.6 +5.9 83 +5 +5 тепло 1021.8 1011.7
23 18.10 Ю 6 28 км 10/0
[As op]
+9.0 +6.8 86 +5 +5 тепло 1021.0 1011.0
00 19.10 Ю 9 26 км {ливн. осадки} 9/9 1170 м
[Sc Ac trans]
+9.2 +6.4 83 +5 +5 по сезону 1020.3 1010.2 0.0
02 19.10 Ю 7 19 км 10/4 450 м
[Sc Ac trans]
+9.2 +7.1 87 +5 +5 тепло 1018.7 1008.7
01 19.10 Ю 7 21 км 10/1 1170 м
[Sc Ac trans]
+9.1 +6.7 85 +5 +5 тепло 1019.4 1009.3
03 19.10 Ю 8 30 км 10/8 540 м
[Cu med, cong Ac trans]
+9.4 +6.7 83 +5 +5 по сезону 1017.5 1007.5
04 19.10 ЮЗ 9 30 км 10/3 540 м
[Sc As op]
+9.2 +6.2 81 +5 +5 тепло 1016.4 1006.3
05 19.10 Ю 8 28 км 10/10 540 м
[Cu Sc]
+9.3 +6.6 83 +5 +5 тепло 1016.0 1005.9
06 19.10 ЮЗ 8 22 км 9/9 600 м
[Sc Ac trans]
+9.2 +5.9 80 +5 +5 по сезону 1015.0 1005.0 +8.5 0.0
08 19.10 ЮЗ 7 21 км 10/4 300 м
[Cu med, cong Ac trans]
+9.0 +6.5 84 +5 +5 тепло 1014.2 1004.2
07 19.10 Ю 8 25 км 9/4 660 м
[Cu med, cong Ac trans]
+9.1 +6.1 81 +5 +5 тепло 1014.7 1004.7
09 19.10 Ю 9 18 км слабый дождь 10/10 240 м
[Sc]
+9.2 +6.9 86 +5 +5 по сезону 1013.7 1003.7
10 19.10 Ю 9 7000 м слабый дождь 10/10 240 м
[Sc]
+9.0 +7.6 91 +4 +4 тепло 1013.3 1003.3
11 19.10 Ю 9
{15}
5000 м дождь 10/10 240 м
[Sc]
+8.9 +8.0 94 +4 +4 по сезону 1013.0 1003.0
12 19.10 ЮЗ 12
{15}
7000 м в посл. час дождь 10/10 210 м
[Sc]
+9.5 +8.0 90 +4 +4 по сезону 1012.9 1003.0 2
14 19.10 З 10
{14}
16 км 6/6 300 м
[Cu Sc]
+10.7 +8.3 85 +7 +7 тепло 1013.8 1003.8
13 19.10 ЮЗ 11
{16}
13 км в посл. час дождь 5/4 300 м
[Cu Sc Ci sp]
+10.5 +9.0 90 +6 +6 тепло 1013.2 1003.2
15 19.10 З 9
{14}
20 км 5/5 360 м
[Cu Sc]
+9.9 +7.4 84 +6 +6 по сезону 1014.3 1004.3
16 19.10 З 9
{13}
13 км в посл. час дождь н/о +9.8 +6.3 79 +6 +6 тепло 1015.4 1005.4
17 19.10 З 8
{13}
20 км 4/4 500 м
[Cu Sc]
+9.1 +5.9 80 +5 +5 тепло 1016.4 1006.3
18 19.10 З 6 15 км {дождь} 1/1 570 м
[Cu Sc]
+8.7 +5.3 79 +5 +5 по сезону 1017.4 1007.3 +11.0 2
20 19.10 З 6 12 км слабый ливневой дождь 4/4 700 м
[Cu Sc Ci sp]
+8.5 +5.4 81 +5 +5 тепло 1018.7 1008.7
19 19.10 З 7 15 км 3/3 570 м
[Cu Sc Ci sp]
+8.9 +5.1 77 +5 +5 тепло 1018.2 1008.1
21 19.10 З 6 15 км в посл. час ливневой дождь 6/4 720 м
[Cu Sc Ci sp]
+8.5 +5.0 79 +5 +5 по сезону 1019.3 1009.2
22 19.10 З 7 15 км 4/4 630 м
[Cu Sc]
+8.3 +5.7 84 +4 +4 тепло 1019.8 1009.8
23 19.10 З 6 18 км 8/3 630 м
[Cu med, cong Ci sp]
+8.4 +6.0 85 +4 +4 тепло 1020.3 1010.2
00 20.10 ЮЗ 5 18 км {ливн. осадки} 8/4 540 м
[Cu med, cong Ci sp]
+7.9 +5.5 85 +4 +4 по сезону 1020.3 1010.2 0.0
02 20.10 ЮЗ 7 15 км в посл. час ливневой дождь 8/8 630 м
[Cu Sc]
+9.1 +6.7 85 +5 +5 тепло 1020.6 1010.6
01 20.10 ЮЗ 5 15 км 6/5 630 м
[Cu Sc Ci sp]
+8.2 +5.5 83 +5 +5 тепло 1020.4 1010.3
03 20.10 ЮЗ 6 18 км в посл. час ливневой дождь 8/8 630 м
[Cu Sc Ac trans]
+8.5 +7.4 93 +5 +5 по сезону 1020.4 1010.3
04 20.10 ЮЗ 5 12 км {ливн. осадки} 8/5 630 м
[Cu Sc Ac trans]
+8.7 +7.8 94 +5 +5 тепло 1020.2 1010.1
05 20.10 ЮЗ 7 12 км 9/3 540 м
[Cu med, cong Ac As Cs]
+8.9 +7.4 90 +5 +5 тепло 1019.7 1009.6
06 20.10 Ю 7 15 км {ливн. осадки} 9/1 450 м
[Sc Ac As]
+8.9 +7.3 90 +5 +5 по сезону 1019.3 1009.3 +7.8 0.4
08 20.10 Ю 9 14 км 9/3 330 м
[St Ac As Ci sp]
+9.6 +7.7 88 +5 +5 тепло 1018.1 1008.1
07 20.10 Ю 10 20 км 9/4 330 м
[St Ac As Cs]
+9.7 +8.0 89 +5 +5 тепло 1018.5 1008.5
09 20.10 Ю 10
{13}
10 км 10/10 300 м
[Sc]
+9.8 +7.9 88 +5 +5 по сезону 1017.9 1007.8
10 20.10 Ю 10
{14}
9000 м слабый дождь 10/10 270 м
[Sc]
+9.8 +8.4 91 +5 +5 тепло 1017.3 1007.3
11 20.10 Ю 10
{14}
6000 м слабая морось {дождь} 10/10 120 м
[Sc]
+9.7 +9.3 97 +5 +5 тепло 1016.5 1006.5
12 20.10 Ю 9
{13}
3900 м слабая морось {дождь} 10/10 90 м
[Frnb]
+10.1 +9.8 98 +6 +6 по сезону 1015.8 1005.9 0.4
14 20.10 ЮЗ 13
{17}
5000 м слабая морось 10/10 210 м
[Frnb]
+12.2 +10.9 92 +8 +8 тепло 1014.5 1004.6
13 20.10 ЮЗ 10-16
{16}
10 км в посл. час морось 10/10 270 м
[St]
+12.1 +10.9 92 +8 +8 тепло 1015.0 1005.1
15 20.10 ЮЗ 13
{19}
1900 м слабая морось 10/10 90 м
[Frnb]
+11.8 +11.5 98 +7 +7 по сезону 1014.1 1004.2
16 20.10 ЮЗ 12
{17}
2400 м морось 10/10 30 м
[Frnb]
+11.8 +11.7 99 +8 +8 тепло 1013.8 1003.9
17 20.10 ЮЗ 14
{18}
2500 м слабая морось 10/10 60 м
[Frnb]
+12.1 +12.0 99 +8 +8 тепло 1013.8 1003.9
18 20.10 ЮЗ 15
{21}
1700 м в посл. час морось 10/10 60 м
[Frnb]
+12.0 +12.0 100 +7 +7 по сезону 1014.0 1004.1 +12.3 1
20 20.10 ЮЗ 13
{18}
3000 м слабая морось {туман} 10/10 60 м
[Frnb]
+11.9 +11.8 99 +7 +7 тепло 1014.3 1004.4
19 20.10 ЮЗ 14
{20}
700 м слабая морось 10/10 30 м
[Frnb]
+11.9 +11.9 100 +7 +7 тепло 1014.0 1004.0
21 20.10 ЮЗ 13
{18}
2500 м слабая морось {туман} 10/10 30 м
[Frnb]
+11.9 +11.8 99 +7 +7 по сезону 1014.3 1004.4
22 20.10 ЮЗ 13
{20}
3000 м слабая морось 10/10 30 м
[Frnb]
+11.9 +11.8 99 +7 +7 тепло 1014.5 1004.6
23 20.10 З 12
{18}
3000 м слабая морось 10/10 30 м
[Frnb]
+11.6 +11.4 99 +7 +7 тепло 1014.7 1004.8
00 21.10 З 13
{17}
3300 м слабая морось {туман} 10/10 90 м
[Frnb]
+10.8 +10.6 99 +6 +6 по сезону 1014.3 1004.4 1
02 21.10 ЮЗ 11
{16}
15 км слабый дождь 10/10 330 м
[Sc]
+9.6 +7.9 89 +5 +5 тепло 1013.6 1003.6
01 21.10 З 13
{17}
18 км в посл. час дождь {морось} 9/9 150 м
[St]
+9.8 +7.9 88 +5 +5 тепло 1014.1 1004.1
03 21.10 З 9
{15}
15 км слабый дождь 10/10 330 м
[Sc]
+9.7 +8.5 92 +5 +5 по сезону 1014.1 1004.1
04 21.10 З 12
{15}
14 км в посл. час дождь н/о +10.0 +9.2 95 +5 +5 тепло 1013.7 1003.7
05 21.10 З 12
{16}
15 км 9/4 150 м
[St Ac As]
+10.1 +8.1 87 +5 +5 тепло 1013.0 1003.1
06 21.10 З 11 8000 м слабый дождь {морось} 10/6 330 м
[Sc Ac As]
+9.9 +8.6 92 +5 +5 по сезону 1013.3 1003.3 +9.4 2
08 21.10 ЮЗ 12
{15}
14 км 10/1 1500 м
[Sc Ac As]
+9.5 +6.5 82 +4 +4 тепло 1012.8 1002.9
07 21.10 ЮЗ 12
{15}
15 км в посл. час дождь 10/6 240 м
[Sc Ac As]
+9.2 +6.0 80 +4 +4 тепло 1013.1 1003.1
09 21.10 ЮЗ 12-17
{18}
13 км слабый дождь 10/9 600 м
[Sc Ac As]
+9.9 +7.3 84 +5 +5 по сезону 1013.0 1003.0
10 21.10 З 14-19
{19}
4000 м дождь 10/9 400 м
[Sc Ac As]
+8.1 +6.7 91 +2 +2 тепло 1013.1 1003.0
11 21.10 З 7
{13}
9000 м слабый дождь 10/10 210 м
[Frnb]
+8.9 +8.3 96 +5 +5 тепло 1012.7 1002.8
12 21.10 З 9
{13}
12 км слабый дождь 10/10 300 м
[Sc]
+8.2 +7.0 92 +3 +3 по сезону 1012.9 1002.9 3

 

Местоположение метеостанции Lerwick (Великобритания): широта 60.13 долгота -1.18 высота над уровнем моря 84 м.

В архиве по умолчанию представлена погода в Lerwick за последнюю неделю. Архивные данные за месяц целиком и за предыдущие месяцы, начиная с января 2011 года, Вы можете получить, выбрав интересующий диапазон дат из раскрывающегося списка и нажав кнопку "Ввод!".


*Определитесь, кто Вы:
робот инопланетянин человек

Внимание! Время в таблицах - всемирное. Для получения местного времени необходимо прибавить поправку, которая в Lerwick равна 0 ч.

Смотрите также архив погоды в соседних городах и на ближайших метеорологических станциях:

Погода в Foula (Великобритания) (49 км)
Погода в Baltasound (Великобритания) (71 км)
Погода в Fair Isle (Великобритания) (71 км)
Погода в Kirkwall (Великобритания) (163 км)
Погода в Sule Skerry (Великобритания) (216 км)
Погода в Wick (Великобритания) (216 км)
Погода в Gullfaks C (Норвегия) (222 км)
Погода в Altnaharra (Великобритания) (277 км)
Погода в Lossiemouth (Великобритания) (295 км)
Погода в Tain Range (Великобритания) (303 км)

Пояснения к столбцам:

Ветер - указаны скорость ветра в м/с - средняя за 10 мин, порывы в срок и между сроками (в фигурных скобках) и направление, откуда дует ветер: С - северный, СВ - северо-восточный, В - восточный, ЮВ - юго-восточный, Ю - южный, ЮЗ - юго-западный, З - западный, СЗ - северо-западный.
Видимость - горизонтальная дальность видимости в метрах или километрах. При видимости от 1 до 10 км при отсутствии осадков обычно наблюдается дымка, при ухудшении видимости до 1 км и менее - туман. В сухую погоду видимость может ухудшаться дымом, пылью или мглою.
Явления - указаны атмосферные явления, наблюдавшиеся в срок или в последний час перед сроком; фигурными скобками обозначены явления, наблюдавшиеся между сроками (за 1-3 часа до срока); квадратными скобками обозначены град или гололедные отложения с указанием их диаметра в мм.
Облачность - указаны через наклонную черту общая и нижняя облачность в баллах и высота нижней границы облаков в метрах; квадратными скобками обозначены формы облаков: Ci - перистые, Cs - перисто-слоистые, Cc - перисто-кучевые, Ac - высококучевые, As - высокослоистые, Sc - слоисто-кучевые, Ns - слоисто-дождевые, Cu - кучевые, Cb - кучево-дождевые. Подробнее классификацию облаков см. в Атласе облаков (PDF).
T - Температура воздуха - температура, измеренная на высоте 2 м над землей.
Td - Температура точки росы - температура, при понижении до которой содержащийся в воздухе водяной пар достигнет насыщения.
f - Относительная влажность воздуха - влажноcть воздуха, измеренная на высоте 2 м над землей.
Te - Эффективная температура - температура, которую ощущает одетый по сезону человек в тени. Характеристика душности погоды. При расчете учитывается влияние влажности воздуха и скорости ветра на теплоощущения человека.
Tes - Эффективная температура на солнце - температура, которую ощущает человек, с поправкой на солнечный нагрев. Характеристика знойности погоды. Зависит от высоты солнца над горизонтом, облачности и скорости ветра. Ночью, в пасмурную погоду, а также при ветре 12 м/с и более поправка равна нулю.
P - Атмосферное давление - приведенное к уровню моря атмосферное давление.
Po - Атмосферное давление - измеренное на уровне метеостанции атмосферное давление.
Tmin - Минимальная температура - минимум температуры воздуха на высоте 2 м над землей.
Tmax - Максимальная температура - максимум температуры воздуха на высоте 2 м над землей.
R - Количество осадков - Количество выпавших осадков за период времени, мм. При наведении курсора мыши на число - период времени, за который выпало указанное количество осадков.
R24 - Количество осадков - Количество выпавших осадков за 24 часа, мм.
S - Снежный покров - Высота снежного покрова, см. При наведении курсора мыши на число - состояние снежного покрова и степень покрытия местности в баллах.